Location: Bieg
(49.3499°N, 10.3835°E)
Time: 10:42:07
(UTC+00:00)

SAR-Lupe-1 - Pass Details

Date: 23 May 2024
Orbit: 479 x 482 km, 98.1° (Epoch: 04 May)

Event Time Altitude Azimuth Distance (km) Brightness Sun altitude
Rises 02:31:37 0° 11° (N) 2,553 8.7 -7.6°
Reaches altitude 10° 02:33:42 10° 8° (N) 1,669 7.7 -7.3°
Maximum altitude 02:37:14 62° 288° (WNW) 546 4.2 -6.9°
Drops below altitude 10° 02:40:45 10° 207° (SSW) 1,655 6.2 -6.5°
Enters shadow 02:41:25 - 205° (SSW) 1,932 6.5 -6.4°
